ARA225 EKCH-EDDF

Flight info

Callsign ARA225
Flight time 1h 3m
Altitude 38000
Route NEXEN T503 GIMRU DCT MICOS DCT RIMET/N0463F310 T157 KOKEB/N0422F230 T157 KERAX KERAX5A
Aircraft B737/M-SDE2E3FGHIRWXY/LB1

Departure

Time 2026-05-03 20:34
Airport Copenhagen Kastrup Airport (EKCH)

Arrival

Time 2026-05-03 21:37
Airport Frankfurt Main Airport (EDDF)
Time Latitude Longitude Altitude Speed Heading
2026-05-03 20:17 55.62511 12.65041 18 ft 0 kts 278°
2026-05-03 20:18 55.62510 12.65041 18 ft 0 kts 278°
2026-05-03 20:19 55.62511 12.65041 18 ft 0 kts 278°
2026-05-03 20:19 55.62510 12.65041 18 ft 0 kts 278°
2026-05-03 20:23 55.62510 12.65051 18 ft 2 kts 277°
2026-05-03 20:24 55.62508 12.65085 18 ft 3 kts 272°
2026-05-03 20:24 55.62508 12.65121 18 ft 3 kts 267°
2026-05-03 20:24 55.62509 12.65157 18 ft 3 kts 262°
2026-05-03 20:24 55.62512 12.65188 18 ft 2 kts 261°
2026-05-03 20:25 55.62513 12.65198 18 ft 0 kts 261°
2026-05-03 20:26 55.62511 12.65186 18 ft 2 kts 249°
2026-05-03 20:26 55.62503 12.65178 18 ft 2 kts 193°
2026-05-03 20:26 55.62517 12.65181 8 ft 0 kts 176°
2026-05-03 20:29 55.62465 12.65187 18 ft 16 kts 178°
2026-05-03 20:29 55.62389 12.65190 19 ft 10 kts 175°
2026-05-03 20:29 55.62330 12.65199 19 ft 13 kts 185°
2026-05-03 20:29 55.62303 12.64999 19 ft 18 kts 301°
2026-05-03 20:30 55.62349 12.64818 21 ft 14 kts 259°
2026-05-03 20:30 55.62308 12.64647 20 ft 19 kts 249°
2026-05-03 20:30 55.62270 12.64485 18 ft 23 kts 244°
2026-05-03 20:30 55.62155 12.64307 18 ft 22 kts 205°
2026-05-03 20:31 55.62021 12.64197 19 ft 21 kts 206°
2026-05-03 20:31 55.61931 12.64122 24 ft 13 kts 205°
2026-05-03 20:31 55.61847 12.64076 26 ft 13 kts 184°
2026-05-03 20:31 55.61762 12.64080 25 ft 10 kts 176°
2026-05-03 20:32 55.61755 12.64081 25 ft 0 kts 177°
2026-05-03 20:33 55.61712 12.64085 26 ft 12 kts 177°
2026-05-03 20:33 55.61590 12.64013 26 ft 36 kts 219°
2026-05-03 20:33 55.61207 12.63421 27 ft 109 kts 221°
2026-05-03 20:33 55.60484 12.62279 95 ft 162 kts 223°
2026-05-03 20:34 55.59643 12.60985 923 ft 154 kts 218°
2026-05-03 20:34 55.58828 12.59850 1833 ft 148 kts 217°
2026-05-03 20:34 55.58007 12.58638 2370 ft 166 kts 220°
2026-05-03 20:34 55.57056 12.57157 2675 ft 197 kts 221°
2026-05-03 20:35 55.55926 12.55497 2919 ft 225 kts 216°
2026-05-03 20:35 55.54579 12.53821 3437 ft 243 kts 214°
2026-05-03 20:35 55.53182 12.52129 4463 ft 243 kts 214°
2026-05-03 20:35 55.51801 12.50458 5563 ft 240 kts 214°
2026-05-03 20:36 55.50419 12.48783 6539 ft 242 kts 215°
2026-05-03 20:36 55.49019 12.47082 7417 ft 247 kts 215°
2026-05-03 20:36 55.47596 12.45350 8319 ft 250 kts 215°
2026-05-03 20:36 55.46154 12.43595 9198 ft 254 kts 216°
2026-05-03 20:37 55.44688 12.41808 9944 ft 257 kts 216°
2026-05-03 20:37 55.43173 12.39962 10455 ft 275 kts 216°
2026-05-03 20:37 55.41558 12.37992 10626 ft 300 kts 216°
2026-05-03 20:37 55.40092 12.36205 10782 ft 320 kts 216°
2026-05-03 20:38 55.38788 12.34619 10907 ft 336 kts 216°
2026-05-03 20:38 55.36820 12.32227 11306 ft 349 kts 216°
2026-05-03 20:38 55.34809 12.29788 11973 ft 353 kts 215°
2026-05-03 20:38 55.32779 12.27328 12732 ft 356 kts 215°
2026-05-03 20:39 55.30731 12.24848 13457 ft 360 kts 215°
2026-05-03 20:39 55.28653 12.22335 14112 ft 364 kts 215°
2026-05-03 20:39 55.26556 12.19801 14774 ft 368 kts 215°
2026-05-03 20:39 55.24441 12.17247 15454 ft 372 kts 215°
2026-05-03 20:40 55.22297 12.14664 16111 ft 376 kts 215°
2026-05-03 20:40 55.20133 12.12058 16743 ft 380 kts 216°
2026-05-03 20:40 55.17969 12.09356 17366 ft 384 kts 217°
2026-05-03 20:40 55.15803 12.06578 17981 ft 388 kts 217°
2026-05-03 20:41 55.13615 12.03752 18517 ft 392 kts 217°
2026-05-03 20:41 55.11412 12.00911 19071 ft 395 kts 217°
2026-05-03 20:41 55.09191 11.98057 19606 ft 398 kts 217°
2026-05-03 20:41 55.06943 11.95179 20121 ft 402 kts 217°
2026-05-03 20:42 55.04677 11.92289 20633 ft 405 kts 217°
2026-05-03 20:42 55.02392 11.89381 21130 ft 408 kts 217°
2026-05-03 20:42 55.00088 11.86456 21605 ft 412 kts 217°
2026-05-03 20:42 54.97767 11.83513 22079 ft 415 kts 217°
2026-05-03 20:43 54.95415 11.80536 22537 ft 418 kts 217°
2026-05-03 20:43 54.93061 11.77560 22986 ft 421 kts 217°
2026-05-03 20:43 54.90689 11.74566 23416 ft 424 kts 217°
2026-05-03 20:43 54.88285 11.71534 23792 ft 427 kts 217°
2026-05-03 20:44 54.85883 11.68509 24201 ft 428 kts 217°
2026-05-03 20:44 54.83464 11.65469 24590 ft 430 kts 217°
2026-05-03 20:44 54.81040 11.62427 24958 ft 431 kts 217°
2026-05-03 20:44 54.78604 11.59384 25316 ft 433 kts 217°
2026-05-03 20:45 54.76147 11.56325 25667 ft 435 kts 217°
2026-05-03 20:45 54.73690 11.53273 25998 ft 437 kts 217°
2026-05-03 20:45 54.71205 11.50190 26324 ft 439 kts 217°
2026-05-03 20:45 54.68726 11.47116 26633 ft 441 kts 217°
2026-05-03 20:46 54.66223 11.44017 26961 ft 442 kts 217°
2026-05-03 20:46 54.63718 11.40919 27339 ft 442 kts 216°
2026-05-03 20:46 54.61225 11.37839 27811 ft 439 kts 216°
2026-05-03 20:46 54.58748 11.34785 28314 ft 437 kts 216°
2026-05-03 20:47 54.56281 11.31749 28773 ft 436 kts 216°
2026-05-03 20:47 54.53845 11.28760 29228 ft 435 kts 216°
2026-05-03 20:47 54.51354 11.25716 29719 ft 433 kts 216°
2026-05-03 20:47 54.48957 11.22790 30159 ft 431 kts 216°
2026-05-03 20:48 54.46513 11.19811 30591 ft 429 kts 216°
2026-05-03 20:48 54.44081 11.16849 30993 ft 428 kts 216°
2026-05-03 20:48 54.41654 11.13896 31394 ft 426 kts 216°
2026-05-03 20:48 54.39241 11.10963 31792 ft 425 kts 216°
2026-05-03 20:49 54.36832 11.08041 32185 ft 423 kts 216°
2026-05-03 20:49 54.34433 11.05136 32567 ft 422 kts 216°
2026-05-03 20:49 54.31919 11.02545 32910 ft 422 kts 207°
2026-05-03 20:49 54.29221 11.00577 33280 ft 422 kts 201°
2026-05-03 20:50 54.26398 10.99197 33644 ft 423 kts 193°
2026-05-03 20:50 54.23496 10.98338 33975 ft 422 kts 192°
2026-05-03 20:50 54.20594 10.97545 34201 ft 423 kts 192°
2026-05-03 20:50 54.17677 10.96765 34411 ft 424 kts 192°
2026-05-03 20:51 54.14764 10.95983 34643 ft 424 kts 192°
2026-05-03 20:51 54.11854 10.95192 34899 ft 424 kts 192°
2026-05-03 20:51 54.08944 10.94392 35127 ft 424 kts 192°
2026-05-03 20:51 54.06030 10.93584 35354 ft 424 kts 192°
2026-05-03 20:52 54.03118 10.92773 35574 ft 424 kts 192°
2026-05-03 20:52 54.00210 10.91961 35798 ft 424 kts 192°
2026-05-03 20:52 53.97294 10.91146 36007 ft 424 kts 192°
2026-05-03 20:52 53.94377 10.90332 36214 ft 425 kts 192°
2026-05-03 20:53 53.91465 10.89521 36430 ft 425 kts 192°
2026-05-03 20:53 53.88544 10.88708 36633 ft 425 kts 192°
2026-05-03 20:53 53.85625 10.87897 36826 ft 425 kts 192°
2026-05-03 20:53 53.82742 10.87098 37025 ft 425 kts 192°
2026-05-03 20:54 53.79817 10.86288 37226 ft 425 kts 192°
2026-05-03 20:54 53.73972 10.84673 37583 ft 426 kts 192°
2026-05-03 20:54 53.71038 10.83864 37777 ft 426 kts 192°
2026-05-03 20:55 53.68106 10.83057 37879 ft 427 kts 192°
2026-05-03 20:55 53.65171 10.82250 37872 ft 427 kts 192°
2026-05-03 20:55 53.59302 10.80640 37878 ft 427 kts 192°
2026-05-03 20:56 53.53435 10.79035 37885 ft 427 kts 192°
2026-05-03 20:56 53.47571 10.77436 37886 ft 427 kts 192°
2026-05-03 20:57 53.41695 10.75837 37885 ft 427 kts 192°
2026-05-03 20:57 53.35855 10.74253 37887 ft 428 kts 192°
2026-05-03 20:58 53.29977 10.72662 37889 ft 428 kts 192°
2026-05-03 20:58 53.24094 10.71075 37895 ft 429 kts 192°
2026-05-03 20:59 53.18200 10.69490 37892 ft 429 kts 192°
2026-05-03 20:59 53.12310 10.67910 37898 ft 429 kts 192°
2026-05-03 21:00 53.07408 10.66598 37902 ft 429 kts 192°
2026-05-03 21:00 53.00511 10.64757 37909 ft 430 kts 192°
2026-05-03 21:01 52.94608 10.63187 37915 ft 430 kts 192°
2026-05-03 21:01 52.88702 10.61620 37920 ft 430 kts 192°
2026-05-03 21:02 52.82796 10.60057 37917 ft 430 kts 192°
2026-05-03 21:02 52.76886 10.58498 37911 ft 430 kts 192°
2026-05-03 21:03 52.70982 10.56945 37916 ft 430 kts 192°
2026-05-03 21:03 52.65085 10.55397 37921 ft 430 kts 192°
2026-05-03 21:04 52.59175 10.53850 37921 ft 430 kts 192°
2026-05-03 21:04 52.53309 10.52319 37933 ft 430 kts 192°
2026-05-03 21:05 52.47398 10.50781 37944 ft 430 kts 191°
2026-05-03 21:05 52.41490 10.49247 37936 ft 430 kts 192°
2026-05-03 21:06 52.35582 10.47718 37938 ft 430 kts 191°
2026-05-03 21:06 52.29668 10.46191 37934 ft 430 kts 191°
2026-05-03 21:07 52.23756 10.44669 37936 ft 430 kts 191°
2026-05-03 21:07 52.17849 10.43152 37936 ft 430 kts 191°
2026-05-03 21:08 52.11941 10.41639 37934 ft 430 kts 191°
2026-05-03 21:08 52.06073 10.40140 37937 ft 429 kts 191°
2026-05-03 21:09 52.00171 10.38637 37938 ft 429 kts 191°
2026-05-03 21:09 51.94287 10.37142 37939 ft 429 kts 191°
2026-05-03 21:10 51.88392 10.35648 37945 ft 428 kts 191°
2026-05-03 21:10 51.82499 10.34159 37953 ft 428 kts 191°
2026-05-03 21:11 51.76602 10.32672 37960 ft 428 kts 191°
2026-05-03 21:11 51.70719 10.31194 37955 ft 429 kts 191°
2026-05-03 21:12 51.64799 10.29709 37955 ft 429 kts 191°
2026-05-03 21:12 51.58935 10.28243 37965 ft 429 kts 191°
2026-05-03 21:13 51.53023 10.26768 37961 ft 429 kts 191°
2026-05-03 21:13 51.47121 10.25300 37957 ft 430 kts 191°
2026-05-03 21:14 51.41201 10.23831 37972 ft 430 kts 191°
2026-05-03 21:14 51.35291 10.22368 37970 ft 430 kts 191°
2026-05-03 21:15 51.29303 10.21724 37980 ft 432 kts 183°
2026-05-03 21:15 51.24290 10.21721 37973 ft 433 kts 183°
2026-05-03 21:16 51.17280 10.21651 37968 ft 433 kts 184°
2026-05-03 21:16 51.12228 10.21564 37971 ft 433 kts 184°
2026-05-03 21:17 51.06195 10.21446 37878 ft 435 kts 184°
2026-05-03 21:17 51.03179 10.21385 37254 ft 438 kts 184°
2026-05-03 21:17 51.00149 10.21328 36731 ft 432 kts 184°
2026-05-03 21:18 50.97247 10.20868 36846 ft 408 kts 195°
2026-05-03 21:18 50.94600 10.19537 37250 ft 394 kts 204°
2026-05-03 21:18 50.89775 10.15206 37221 ft 405 kts 219°
2026-05-03 21:19 50.87556 10.12273 36491 ft 426 kts 221°
2026-05-03 21:19 50.85299 10.09160 35878 ft 430 kts 221°
2026-05-03 21:19 50.83058 10.06044 35238 ft 426 kts 221°
2026-05-03 21:19 50.80837 10.02973 34633 ft 422 kts 220°
2026-05-03 21:20 50.78626 9.99941 33987 ft 420 kts 220°
2026-05-03 21:20 50.76402 9.96916 33003 ft 422 kts 220°
2026-05-03 21:20 50.74168 9.93895 32096 ft 423 kts 220°
2026-05-03 21:20 50.71931 9.90879 31204 ft 421 kts 220°
2026-05-03 21:21 50.69752 9.87947 30341 ft 413 kts 220°
2026-05-03 21:21 50.67584 9.85033 29395 ft 405 kts 220°
2026-05-03 21:21 50.65456 9.82176 28433 ft 398 kts 220°
2026-05-03 21:21 50.63366 9.79372 27493 ft 391 kts 220°
2026-05-03 21:22 50.61309 9.76616 26594 ft 385 kts 220°
2026-05-03 21:22 50.59278 9.73899 25715 ft 380 kts 220°
2026-05-03 21:22 50.57281 9.71228 24871 ft 375 kts 220°
2026-05-03 21:22 50.55305 9.68588 24042 ft 370 kts 220°
2026-05-03 21:23 50.53384 9.66025 23194 ft 366 kts 220°
2026-05-03 21:23 50.51452 9.63453 22252 ft 362 kts 220°
2026-05-03 21:23 50.49579 9.60849 21341 ft 358 kts 226°
2026-05-03 21:23 50.48049 9.57786 20466 ft 355 kts 236°
2026-05-03 21:24 50.46849 9.54437 19611 ft 352 kts 244°
2026-05-03 21:24 50.46034 9.50817 18773 ft 349 kts 251°
2026-05-03 21:24 50.45359 9.47181 17929 ft 345 kts 252°
2026-05-03 21:24 50.44697 9.43543 16758 ft 348 kts 252°
2026-05-03 21:25 50.44027 9.39892 15655 ft 349 kts 252°
2026-05-03 21:25 50.43343 9.36227 14584 ft 349 kts 252°
2026-05-03 21:25 50.42537 9.32652 13486 ft 348 kts 240°
2026-05-03 21:25 50.40962 9.29893 12367 ft 346 kts 216°
2026-05-03 21:26 50.38857 9.28103 11290 ft 343 kts 206°
2026-05-03 21:26 50.36677 9.26639 10230 ft 339 kts 204°
2026-05-03 21:26 50.34555 9.25301 9802 ft 318 kts 204°
2026-05-03 21:26 50.32555 9.24063 9308 ft 300 kts 204°
2026-05-03 21:27 50.30661 9.22903 8829 ft 285 kts 204°
2026-05-03 21:27 50.28856 9.21804 8363 ft 273 kts 204°
2026-05-03 21:27 50.27118 9.20752 7893 ft 263 kts 204°
2026-05-03 21:27 50.25440 9.19745 7460 ft 254 kts 204°
2026-05-03 21:28 50.23837 9.18693 6993 ft 245 kts 213°
2026-05-03 21:28 50.22530 9.17061 6576 ft 238 kts 222°
2026-05-03 21:28 50.21326 9.15305 6124 ft 236 kts 225°
2026-05-03 21:28 50.20358 9.13292 5868 ft 229 kts 236°
2026-05-03 21:29 50.19529 9.11183 5609 ft 227 kts 237°
2026-05-03 21:29 50.18701 9.09069 5371 ft 231 kts 237°
2026-05-03 21:29 50.17862 9.06974 5128 ft 232 kts 237°
2026-05-03 21:29 50.17003 9.04876 4876 ft 227 kts 237°
2026-05-03 21:30 50.16152 9.02828 4616 ft 223 kts 237°
2026-05-03 21:30 50.15305 9.00817 4352 ft 220 kts 237°
2026-05-03 21:30 50.14471 8.98847 4111 ft 216 kts 237°
2026-05-03 21:30 50.13655 8.96929 4016 ft 206 kts 237°
2026-05-03 21:31 50.12887 8.95129 3987 ft 194 kts 237°
2026-05-03 21:31 50.12187 8.93357 3991 ft 190 kts 245°
2026-05-03 21:31 50.11713 8.91441 4002 ft 189 kts 249°
2026-05-03 21:31 50.11271 8.89498 4006 ft 192 kts 250°
2026-05-03 21:32 50.10820 8.87535 4009 ft 193 kts 249°
2026-05-03 21:32 50.10365 8.85553 4007 ft 196 kts 249°
2026-05-03 21:32 50.09898 8.83549 4007 ft 197 kts 249°
2026-05-03 21:32 50.09411 8.81473 3530 ft 212 kts 250°
2026-05-03 21:33 50.08912 8.79352 3164 ft 203 kts 250°
2026-05-03 21:33 50.08446 8.77369 2877 ft 188 kts 250°
2026-05-03 21:33 50.08012 8.75534 2608 ft 174 kts 250°
2026-05-03 21:33 50.07610 8.73835 2386 ft 161 kts 250°
2026-05-03 21:34 50.07235 8.72246 2166 ft 153 kts 249°
2026-05-03 21:34 50.06871 8.70708 1980 ft 151 kts 250°
2026-05-03 21:34 50.06529 8.69172 1842 ft 145 kts 249°
2026-05-03 21:34 50.06207 8.67808 1638 ft 125 kts 248°
2026-05-03 21:35 50.05903 8.66543 1417 ft 127 kts 248°
2026-05-03 21:35 50.05590 8.65202 1251 ft 135 kts 249°
2026-05-03 21:35 50.05257 8.63838 1059 ft 135 kts 248°
2026-05-03 21:35 50.04941 8.62511 895 ft 131 kts 248°
2026-05-03 21:36 50.04614 8.61161 733 ft 130 kts 248°
2026-05-03 21:36 50.04291 8.59824 563 ft 134 kts 248°
2026-05-03 21:36 50.03965 8.58469 392 ft 137 kts 249°
2026-05-03 21:36 50.03646 8.57150 352 ft 116 kts 249°
2026-05-03 21:37 50.03439 8.56289 350 ft 54 kts 253°
2026-05-03 21:37 50.03448 8.55968 345 ft 22 kts 279°
2026-05-03 21:37 50.03462 8.55811 345 ft 9 kts 281°
2026-05-03 21:37 50.03475 8.55712 345 ft 9 kts 281°
2026-05-03 21:38 50.03487 8.55615 345 ft 9 kts 280°
2026-05-03 21:38 50.03492 8.55569 354 ft 1 kts 277°
2026-05-03 21:38 50.03506 8.55565 347 ft 6 kts 31°
2026-05-03 21:38 50.03548 8.55705 346 ft 26 kts 69°
2026-05-03 21:39 50.03616 8.55985 348 ft 27 kts 69°
2026-05-03 21:39 50.03679 8.56252 352 ft 26 kts 70°
2026-05-03 21:39 50.03745 8.56530 350 ft 28 kts 70°
2026-05-03 21:39 50.03816 8.56825 352 ft 30 kts 69°
2026-05-03 21:40 50.03890 8.57133 348 ft 31 kts 70°
2026-05-03 21:40 50.03967 8.57453 353 ft 32 kts 69°
2026-05-03 21:40 50.04043 8.57769 352 ft 30 kts 70°
2026-05-03 21:40 50.04112 8.58065 353 ft 26 kts 69°
2026-05-03 21:41 50.04244 8.58205 349 ft 23 kts 13°
2026-05-03 21:41 50.04395 8.58141 351 ft 22 kts 340°
2026-05-03 21:41 50.04514 8.58072 350 ft 13 kts 339°
2026-05-03 21:41 50.04591 8.58027 347 ft 11 kts 340°
2026-05-03 21:42 50.04659 8.57989 345 ft 10 kts 340°
2026-05-03 21:42 50.04729 8.57953 352 ft 11 kts 357°
2026-05-03 21:42 50.04796 8.58038 352 ft 15 kts 61°
2026-05-03 21:42 50.04802 8.58140 345 ft 7 kts 141°
2026-05-03 21:43 50.04775 8.58159 347 ft 3 kts 158°
2026-05-03 21:43 50.04753 8.58173 350 ft 3 kts 158°
2026-05-03 21:43 50.04743 8.58178 346 ft 0 kts 164°